Wind_Speed
3 4 3 3 3 2 2 2 3 4 1 2 4 8 14 8 5 8 9 9 10 12 16 23 25 28 29 30 30 33 34 36 34 32 30 29 29 28 28 27 26 24 23 23
5 2 4 2 2 1 1 1 4 4 1 3 5 10 6 2 4 7 9 9 11 7 7 19 22 25 29 32 33 34 36 37 37 36 34 32 25 29 31 27 27 26 26 24
5 2 3 1 1 1 0 1 1 2 6 0 6 7 6 3 3 3 5 7 6 11 11 9 21 27 29 32 34 36 36 38 38 38 37 32 31 27 24 27 30 31 28 27
3 1 2 1 1 3 2 2 1 2 4 1 3 2 5 5 8 4 6 6 7 8 7 9 16 23 29 34 33 34 36 37 37 38 39 39 38 35 37 34 29 28 27 28
4 3 2 2 2 2 2 2 2 2 2 2 4 3 7 4 5 4 6 6 7 7 8 9 16 24 29 30 31 31 33 35 36 38 40 42 42 43 41 37 33 31 29 29
1 1 1 2 2 2 4 3 5 4 2 2 2 3 5 3 4 3 4 6 6 6 6 11 16 17 24 26 28 28 30 34 36 37 39 41 43 44 42 42 39 37 33 31
3 2 1 1 2 2 4 4 2 2 2 5 1 2 8 4 5 4 4 7 7 6 5 6 9 12 18 23 26 27 28 34 36 38 40 41 43 44 45 43 42 39 38 35
6 4 4 1 2 4 4 5 4 4 4 3 1 5 5 5 5 4 5 7 7 7 5 6 10 14 15 18 22 25 29 32 34 36 39 41 42 43 45 45 44 43 42 40
5 3 0 1 1 2 3 3 2 5 2 2 3 7 8 4 4 3 6 6 8 8 7 7 9 11 14 17 20 22 25 30 31 33 33 35 35 36 39 41 42 42 42 40
5 3 1 0 1 2 1 3 2 2 3 3 4 5 5 6 8 6 6 7 7 6 7 7 9 12 14 16 18 19 22 26 28 29 30 30 31 31 32 34 37 37 37 36
5 3 2 1 6 8 2 1 3 3 3 4 1 6 7 9 9 10 8 8 7 7 7 6 8 8 10 13 16 20 23 25 28 29 29 27 27 26 26 28 31 32 32 32
6 5 4 4 1 1 2 4 5 5 4 1 3 6 3 6 7 8 8 7 5 5 5 4 5 6 6 7 9 13 17 20 21 22 21 20 20 20 23 25 27 27 29 29
9 2 2 5 2 1 5 5 4 5 3 6 5 6 1 4 5 7 8 7 5 6 5 4 4 5 6 8 11 14 15 15 15 14 15 17 19 21 23 23 23 24 24 26
6 4 7 8 5 5 5 6 6 6 4 5 6 6 4 7 9 8 9 8 7 7 6 4 5 7 7 10 12 14 15 14 13 12 15 18 21 22 22 22 22 22 22 24
3 7 6 6 3 4 5 6 10 10 6 7 5 10 8 9 10 10 9 7 7 8 7 6 5 7 9 11 11 13 14 14 14 14 17 20 20 21 22 23 22 21 22 23
1 2 4 3 3 7 5 8 11 11 4 10 2 15 11 11 6 7 10 8 9 9 9 8 7 9 11 11 12 13 15 16 16 17 21 21 22 23 23 23 22 21 22 23
7 6 4 5 1 4 7 15 12 6 7 11 9 19 5 6 8 9 9 8 10 10 9 9 9 11 13 12 11 13 14 15 18 21 26 26 24 25 25 23 23 24 24 23
7 7 3 3 1 5 6 1 5 18 13 14 8 9 8 9 7 8 9 8 10 10 9 9 12 13 15 12 12 13 14 16 19 23 27 29 26 26 26 25 27 28 27 26
2 6 3 5 5 7 6 6 9 10 11 21 19 21 14 3 1 12 12 12 14 10 12 16 12 12 11 12 14 15 18 19 21 27 28 30 27 24 24 27 30 31 30 30
4 5 4 4 5 10 7 1 6 5 6 8 19 22 8 8 2 7 2 5 10 14 11 10 10 8 9 13 15 17 23 22 26 31 31 27 25 24 24 26 29 31 31 32
4 1 8 4 5 8 8 4 6 7 8 5 12 7 9 7 6 4 1 2 3 9 11 8 6 7 11 15 17 19 22 24 31 29 28 26 25 25 25 26 27 27 29 30
9 10 5 3 4 14 9 5 9 7 1 4 6 7 9 6 4 5 4 3 3 5 6 4 5 10 14 15 18 21 23 29 27 24 22 23 25 26 26 24 24 24 26 29
6 7 7 12 9 5 11 8 9 4 4 5 6 7 8 7 7 6 5 5 4 5 5 5 9 11 14 19 20 22 28 24 23 22 25 27 24 21 20 23 25 26 27 26
5 4 4 3 6 9 9 8 4 7 2 3 4 6 8 6 7 6 4 4 3 4 5 6 9 13 18 21 22 24 22 22 23 25 26 23 22 25 26 26 25 25 24 24
6 11 7 6 6 5 8 9 9 10 5 7 7 7 8 6 6 5 4 4 4 6 8 10 11 13 19 21 19 20 20 22 24 25 26 24 24 26 27 25 25 23 23 22
6 8 9 8 8 7 7 8 12 11 11 14 8 5 4 6 7 4 4 5 6 9 12 11 12 14 18 18 17 19 20 22 23 24 24 24 25 26 24 25 25 20 18 14
Wind_Direction
11 70 191 225 180 162 145 191 250 267 66 301 251 276 287 301 213 237 236 229 233 233 249 246 241 238 236 236 236 236 234 232 228 228 229 233 237 241 244 246 251 253 252 250
23 224 208 195 214 204 215 238 282 298 16 7 341 300 288 287 244 220 234 240 236 241 241 243 241 236 234 235 234 235 234 232 230 231 233 235 243 248 252 254 253 252 251 250
160 271 137 139 40 149 209 205 283 255 324 248 328 309 342 303 311 245 251 242 239 225 233 240 234 233 231 233 234 233 234 233 234 234 234 236 239 245 248 248 248 248 248 248
220 345 149 122 257 129 309 154 86 359 34 194 20 261 311 326 315 290 304 289 264 241 240 243 241 236 231 234 235 236 237 237 238 238 236 237 238 237 250 256 261 260 253 251
255 167 163 190 222 152 227 46 15 42 45 25 339 79 268 342 329 309 310 307 280 245 233 234 238 240 237 236 237 238 240 242 243 243 241 241 241 248 256 259 260 260 258 254
242 307 124 178 112 121 145 88 45 49 51 22 274 120 283 228 215 293 300 307 299 290 249 241 249 254 246 243 242 243 242 245 247 247 247 245 248 251 253 256 256 259 258 256
358 253 303 148 126 81 82 66 0 5 7 214 349 40 239 248 238 223 273 294 288 284 273 259 254 250 246 242 243 244 246 250 251 251 252 252 253 254 256 260 261 261 261 258
166 290 175 60 189 186 174 160 160 222 190 239 317 233 245 215 279 240 278 278 300 292 274 262 257 254 255 253 249 246 247 251 254 256 258 259 259 258 260 262 263 264 264 266
147 252 20 90 125 127 171 203 181 106 22 36 253 290 301 205 255 273 288 315 292 297 298 284 284 269 265 261 256 254 254 256 260 262 264 265 265 263 264 266 266 266 267 267
207 110 252 232 112 42 180 162 76 17 164 238 286 275 234 214 222 239 256 263 282 298 303 293 282 277 274 271 271 269 266 265 270 272 272 273 274 272 271 268 266 267 269 268
142 121 224 102 199 182 142 218 61 118 128 161 250 265 212 204 197 202 227 246 265 288 293 297 304 312 292 281 280 279 276 276 277 277 276 275 276 276 273 270 270 270 271 269
186 129 176 191 196 194 216 206 153 122 214 82 142 274 258 217 201 184 212 235 264 259 275 293 309 322 325 322 315 305 301 293 293 290 282 275 278 277 274 272 273 273 271 271
181 194 86 355 358 8 211 195 136 108 93 200 138 262 317 251 227 226 216 237 292 281 287 285 289 287 312 323 324 326 325 317 312 301 287 280 279 277 276 278 278 275 272 269
109 151 169 189 198 135 189 179 167 142 139 173 226 276 273 233 228 231 228 231 263 258 251 256 278 277 302 313 320 329 332 326 317 293 280 276 277 279 280 281 278 275 273 269
137 203 177 229 199 177 196 173 175 196 180 179 228 214 224 230 225 232 229 239 247 264 253 245 247 265 289 299 314 320 323 323 312 292 279 279 282 281 281 278 277 277 274 273
315 216 160 273 204 209 246 217 197 215 234 266 293 273 197 231 242 253 236 233 252 248 244 243 241 246 267 284 304 312 319 322 310 298 287 285 282 284 281 279 279 278 276 275
156 139 116 252 34 131 290 227 197 188 216 204 206 240 168 197 214 232 240 226 231 228 231 230 228 232 249 270 290 298 312 314 308 301 296 291 289 287 284 284 281 277 276 276
150 129 114 170 70 240 232 194 207 211 230 214 256 247 208 219 232 243 231 210 227 226 233 234 236 238 245 260 274 292 300 302 302 299 300 298 295 292 291 286 282 281 278 274
163 133 141 160 203 294 283 195 175 169 259 219 223 249 235 137 241 273 226 207 224 214 224 231 241 241 248 270 283 291 297 302 301 297 300 306 303 297 292 287 285 283 280 278
87 37 142 145 192 215 232 186 149 136 287 203 196 227 180 130 185 255 309 212 228 228 230 241 246 235 266 292 306 299 297 300 300 304 310 310 303 298 294 294 293 292 288 284
143 113 193 180 230 283 245 165 154 132 235 189 195 180 149 185 201 188 5 133 224 217 205 205 210 256 285 299 299 294 293 296 306 310 310 309 305 304 303 302 300 297 295 292
163 164 181 114 199 253 171 78 178 215 232 156 163 175 186 201 173 235 286 241 195 181 173 194 253 279 290 296 295 290 294 308 312 311 310 311 311 309 307 305 303 295 292 286
202 188 183 186 205 218 194 203 203 173 172 190 162 176 189 192 217 224 219 221 233 253 276 281 277 285 295 301 299 295 301 311 312 310 307 306 307 305 306 303 300 295 291 285
235 170 212 121 214 227 223 235 233 217 207 146 166 151 169 176 191 204 218 230 238 254 267 285 290 293 297 302 298 300 307 312 309 305 302 302 301 305 309 308 305 297 290 284
186 149 166 260 277 303 242 221 226 220 214 205 219 191 200 190 224 213 237 244 247 269 290 300 293 292 292 297 299 304 310 311 306 303 302 302 303 307 309 308 306 300 294 288
180 171 190 224 197 195 227 205 205 201 212 217 190 205 204 190 220 193 223 236 248 271 283 282 291 291 291 298 301 304 310 307 303 300 299 300 306 312 313 310 307 303 303 300
Height
849 860 866 858 857 858 859 864 865 858 852 854 858 860 844 837 840 842 843 845 844 841 835 837 839 842 845 847 849 850 851 854 858 860 861 862 862 863 864 865 866 867 867 869
860 864 853 851 852 855 859 863 866 860 853 858 858 854 840 832 833 835 836 838 838 836 834 833 834 836 838 839 842 844 845 848 851 853 855 856 857 858 859 860 861 862 862 864
863 852 846 850 857 859 862 863 865 867 863 860 863 852 845 830 827 827 828 830 830 828 828 828 828 828 831 833 834 837 839 842 845 848 851 852 853 853 853 853 854 854 856 858
855 848 849 854 857 860 863 859 862 864 873 870 863 873 846 840 836 825 826 826 825 824 823 823 823 824 825 825 830 833 835 837 840 843 845 845 845 844 844 845 847 849 852 852
857 853 854 857 856 855 863 859 863 865 874 874 864 875 852 841 831 824 822 821 820 820 820 819 818 818 819 823 825 828 831 833 835 836 837 838 839 838 839 840 842 843 845 847
852 848 850 852 854 855 859 864 871 879 882 881 863 873 858 844 829 824 819 818 817 816 815 815 815 816 816 819 822 825 827 828 830 831 831 832 832 832 832 833 834 836 838 840
857 854 852 852 857 858 863 875 890 880 886 881 867 874 851 828 825 822 818 818 816 815 815 815 815 814 814 815 818 821 823 822 824 824 825 824 824 826 825 826 827 828 829 832
872 870 857 853 855 860 864 872 887 863 888 879 870 873 840 825 820 818 817 818 815 815 814 814 812 812 812 812 814 816 816 816 817 818 817 817 818 819 819 819 819 819 820 821
870 859 856 855 856 858 862 872 865 883 890 888 874 852 829 823 820 818 818 818 817 815 813 812 810 810 810 810 810 812 812 811 811 811 811 811 811 811 811 811 812 812 812 813
844 863 858 857 855 857 858 861 873 882 875 865 872 866 848 828 825 822 820 819 817 814 812 810 808 807 807 807 807 808 808 806 806 806 805 805 805 804 804 804 803 804 804 805
843 849 864 859 863 863 868 869 873 877 884 883 879 858 827 821 819 820 819 817 815 814 811 808 806 804 803 803 804 804 803 802 801 800 800 800 799 799 798 797 797 797 797 798
834 855 869 854 852 852 854 855 863 879 873 896 899 861 812 813 812 814 814 813 811 809 808 806 804 802 801 801 800 800 798 796 795 795 795 795 795 795 793 792 791 791 791 792
832 851 867 860 857 854 855 855 858 871 882 886 891 850 814 815 813 813 813 810 809 808 805 803 802 800 798 798 797 796 795 792 791 790 790 790 790 789 788 787 786 786 785 785
817 843 843 851 835 845 852 849 854 855 878 874 868 835 813 811 813 810 810 808 807 805 802 801 799 797 796 796 795 794 793 791 788 787 786 785 785 784 783 782 781 780 780 780
822 835 841 834 827 834 834 839 851 851 845 843 827 840 814 807 805 802 802 803 803 801 798 797 797 796 794 793 792 792 789 788 786 784 782 780 780 779 778 777 776 775 774 774
828 831 833 828 828 835 833 832 840 839 838 840 832 823 801 793 796 798 796 798 798 796 793 793 793 792 791 790 789 788 787 785 784 781 778 776 775 774 773 772 771 771 770 769
830 837 842 841 831 832 839 817 828 829 825 813 828 785 789 792 795 793 790 791 790 788 787 787 786 785 786 786 786 785 783 782 781 778 774 772 772 769 768 768 767 765 764 764
828 833 846 849 839 845 802 793 795 800 790 805 797 789 785 781 781 782 781 781 783 781 780 780 779 780 781 782 782 781 780 779 777 774 770 768 767 766 764 763 761 760 759 757
813 829 853 850 853 822 791 796 798 802 789 779 785 775 773 781 781 773 770 770 769 769 770 772 775 775 776 778 779 779 776 775 773 770 766 763 761 759 757 756 754 752 751 750
817 823 823 867 838 828 789 775 780 777 799 759 765 762 773 780 794 771 760 761 762 764 767 769 771 772 772 773 775 774 773 771 767 764 761 759 756 753 751 749 748 746 744 742
824 832 830 838 837 811 781 773 778 799 777 747 752 757 771 774 764 759 759 758 759 760 762 765 767 767 769 769 769 767 766 764 760 758 755 752 750 748 745 743 741 740 738 737
803 816 835 844 830 804 767 776 778 752 742 744 751 754 759 757 757 756 757 756 757 758 761 763 764 764 765 764 762 760 759 757 755 752 749 747 745 742 738 736 733 731 730 728
782 773 786 781 770 749 751 742 741 742 741 741 743 747 750 754 756 754 756 757 759 759 759 760 761 761 761 759 757 753 751 751 750 748 744 741 738 736 733 729 726 724 723 720
769 764 766 761 748 748 745 740 739 740 738 739 740 743 747 748 750 752 754 755 755 756 757 757 758 757 756 754 752 749 747 747 745 741 738 736 732 728 726 724 721 719 716 712
750 753 759 756 744 742 738 738 734 737 738 739 739 739 741 744 746 749 750 751 752 753 753 752 751 751 750 750 748 745 744 743 740 737 733 730 728 725 721 719 717 713 711 709
736 740 737 730 727 723 720 720 722 730 731 731 734 737 738 741 743 745 747 747 748 748 748 747 747 747 745 746 743 740 740 737 734 731 729 727 724 720 717 713 709 710 707 707